User: anonymous   Login
Location: Izdebno
(52.6670°N, 16.2170°E)
Time: 07:24:34
(UTC+02:00)
Language:

FENGYUN 1C DEB - Orbit

View from above orbital plane
View from above orbital plane
View from above satellite
View from above satellite

Ground track
Ground track

The orbit data is extracted from the following two-line orbital elements,

1 31331U 99025BQK 24101.36294625  .00000023  00000-0  44309-4 0  9990
2 31331  98.9349 136.9623 0054343  75.9751 284.7447 14.00201049552995
Epoch (UTC): 10 April 2024 08:42:38
Eccentricity: 0.0054343
inclination: 98.9349°
perigee height: 853 km
apogee height: 932 km
right ascension of ascending node: 136.9623°
argument of perigee: 75.9751°
revolutions per day: 14.00201049
mean anomaly at epoch: 284.7447°
orbit number at epoch: 55299

The dashed part of the orbit path shows where the satellite is in the earth's shadow,  

DLR